Lapse_Rate
6.7 6.7 6.7 6.5 6.7 7.1 7.6 7.8 8.2 8.0 8.1 8.1 8.4 8.7 8.8 8.8 8.6 8.3 8.4 8.0 8.1 7.8 7.3 7.5 7.5 7.2 7.0 6.9 6.5 6.3 6.3 6.4 6.5 6.7 6.6 6.4 6.2 6.1 6.2 6.2 6.3 6.2 6.2 6.3 6.2 6.0 5.8 5.8 6.2
6.9 6.9 6.7 6.8 6.7 7.0 8.1 8.1 8.0 8.1 7.9 8.3 8.2 8.4 8.5 8.5 8.4 8.4 8.3 8.2 7.9 7.4 7.5 7.5 7.4 7.5 7.5 7.0 6.6 6.5 6.5 6.6 6.6 6.7 6.5 6.3 6.3 6.3 6.4 6.4 6.4 6.3 6.3 6.4 6.3 6.2 6.0 5.9 6.1
6.7 6.7 6.7 6.7 6.8 7.5 8.0 8.0 8.2 8.2 8.4 8.2 8.1 8.5 8.1 8.2 8.3 8.2 8.4 7.7 7.8 7.8 7.6 7.6 7.5 7.7 7.5 7.1 7.0 6.8 6.8 6.8 6.9 6.7 6.4 6.3 6.2 6.3 6.3 6.3 6.3 6.3 6.4 6.5 6.3 6.1 6.1 6.1 6.1
6.8 6.7 6.7 6.9 7.2 8.3 8.4 8.7 8.6 8.7 8.7 8.7 8.3 8.4 7.9 8.4 8.3 8.1 8.0 8.3 8.2 7.9 7.7 7.5 7.4 7.5 7.4 7.3 7.1 7.1 6.9 6.9 6.9 6.7 6.5 6.4 6.3 6.3 6.3 6.2 6.2 6.3 6.6 6.7 6.7 6.7 6.3 6.3 6.4
6.8 6.9 6.7 7.1 7.5 8.6 8.4 8.5 9.0 8.7 8.8 9.0 8.3 8.4 8.0 8.6 8.4 8.6 8.5 8.1 8.0 7.8 8.0 7.7 7.6 7.1 6.9 7.3 7.3 7.1 7.2 7.0 7.0 6.7 6.6 6.5 6.4 6.4 6.4 6.4 6.3 6.5 6.7 6.8 6.7 6.7 6.6 6.4 6.4
6.8 6.7 6.9 7.3 7.9 8.7 8.8 8.8 8.4 8.5 8.8 9.0 8.6 8.1 8.6 8.2 8.6 8.5 8.4 8.1 7.8 7.9 7.9 7.8 7.2 7.0 7.0 7.1 7.4 7.2 7.1 7.0 7.0 6.9 6.8 6.8 6.6 6.6 6.7 6.7 6.7 6.8 6.7 6.7 6.7 6.7 6.6 6.4 6.3
7.0 6.6 7.1 7.2 7.7 8.6 8.9 8.9 8.3 8.5 8.9 9.0 8.9 8.8 9.0 8.9 8.8 8.6 8.2 8.0 7.7 7.4 7.6 7.3 7.2 7.3 7.2 7.1 7.3 7.6 7.2 7.4 7.4 7.3 7.2 7.0 6.9 6.9 6.9 6.9 7.0 6.9 6.8 6.7 6.7 6.6 6.6 6.6 6.6
7.0 6.4 6.7 7.0 7.6 8.5 8.9 8.6 8.8 8.7 9.0 9.0 9.0 8.9 8.7 8.5 8.3 8.0 8.0 7.8 7.4 7.2 7.4 8.4 7.8 7.8 7.7 7.6 7.5 7.5 7.8 7.5 7.7 7.7 7.6 7.4 7.2 7.2 7.2 7.2 7.2 7.2 7.0 6.9 6.9 6.8 6.8 6.7 6.5
7.1 6.0 6.7 7.2 7.5 8.0 8.7 6.8 8.8 8.6 8.5 8.6 8.8 8.9 8.8 8.6 8.3 8.2 8.2 8.0 7.6 8.1 8.1 7.7 8.3 8.1 8.2 7.8 7.7 7.7 7.8 7.6 7.8 7.8 7.9 7.7 7.5 7.5 7.5 7.5 7.4 7.4 7.2 7.1 7.1 7.1 7.0 7.0 6.7
7.2 6.6 6.8 8.0 7.9 8.3 8.7 7.7 8.2 8.7 8.1 7.9 8.2 8.8 8.6 8.6 8.6 8.7 8.6 8.6 8.4 8.4 8.2 8.2 8.6 8.2 8.3 8.2 8.0 8.0 7.8 7.6 7.8 8.0 8.0 8.0 7.9 7.8 7.9 7.7 7.6 7.4 7.2 7.2 7.3 7.4 7.3 7.1 6.9
7.2 6.8 7.6 7.8 7.7 7.9 8.6 8.4 7.8 8.1 8.3 8.3 8.4 8.2 8.4 8.7 8.8 8.5 8.4 8.5 8.5 8.1 7.9 8.3 8.5 8.2 8.4 8.3 8.0 8.0 7.8 7.7 7.8 8.0 8.2 8.3 8.3 8.2 8.1 8.0 7.7 7.4 7.0 7.0 7.2 7.4 7.3 7.1 6.7
6.6 7.1 7.2 7.8 7.8 7.8 8.3 8.4 8.6 8.6 8.2 8.5 8.5 8.6 8.3 8.4 8.3 8.3 8.1 8.4 8.3 8.3 8.1 8.2 8.1 8.2 8.4 8.4 8.1 8.1 7.9 7.8 7.9 8.2 8.4 8.7 8.5 8.3 8.3 8.0 7.9 7.5 7.2 7.0 7.1 7.2 7.4 7.0 6.5
7.2 7.6 7.3 7.3 7.7 7.8 8.0 8.1 8.0 8.4 8.8 8.7 8.6 8.4 8.5 8.4 8.7 8.7 8.5 8.4 8.3 8.3 8.4 8.4 8.0 8.2 8.3 8.2 8.1 8.1 8.0 7.9 7.8 8.2 8.6 8.8 8.7 8.5 8.3 7.9 8.0 7.5 7.6 7.2 7.0 7.1 7.2 7.1 6.6
7.3 7.0 7.0 6.7 6.9 7.4 7.5 8.0 8.1 7.9 8.3 8.6 8.7 8.5 8.5 8.6 8.5 8.5 8.4 8.4 8.2 8.1 8.3 8.3 8.3 8.4 8.3 8.2 8.2 8.3 8.0 7.8 7.9 8.1 8.6 8.7 8.8 8.6 8.4 8.0 7.7 7.7 7.6 7.1 6.9 6.9 6.9 6.7 6.5
6.9 6.7 6.6 6.7 6.6 6.7 7.5 6.8 7.0 7.5 8.1 7.9 8.0 8.2 8.5 8.2 8.2 8.1 8.0 8.0 8.0 8.0 8.5 8.5 8.5 8.3 8.3 8.4 8.3 8.3 8.0 7.8 7.8 8.1 8.4 8.6 8.8 8.7 8.4 7.8 7.8 7.6 7.4 7.2 6.8 6.6 6.6 6.3 6.1
6.2 6.2 5.9 6.2 6.3 6.6 7.5 5.9 7.3 7.9 7.7 7.7 8.2 8.3 8.1 8.0 8.0 7.9 7.8 7.9 8.2 8.4 8.5 8.6 8.6 8.3 8.4 8.4 8.4 8.2 8.2 7.9 7.9 8.0 8.3 8.7 8.8 8.6 8.1 7.8 7.9 7.6 7.4 7.0 6.7 6.7 6.2 6.1 5.8
5.9 5.6 5.8 6.1 6.6 7.0 7.5 5.9 6.8 7.5 8.0 7.9 8.0 8.1 7.9 7.7 7.8 8.0 8.1 8.2 8.4 8.5 8.8 8.5 8.5 8.6 8.5 8.6 8.6 8.2 8.2 8.1 7.8 7.9 8.3 8.6 8.5 8.4 8.3 7.8 7.6 7.4 7.1 6.9 6.8 6.6 6.2 6.2 6.0
5.1 5.7 5.8 5.8 6.4 7.0 7.4 6.4 7.3 7.7 7.9 8.0 7.8 7.6 7.7 7.7 7.8 7.9 7.8 8.1 8.4 8.6 8.9 8.8 9.0 9.0 8.7 8.6 8.6 8.4 8.4 8.4 8.0 7.9 8.1 8.1 8.1 8.0 7.8 7.5 7.3 7.1 7.0 7.1 6.6 6.5 6.2 6.3 6.1
6.1 5.9 6.3 6.5 6.9 7.1 6.9 6.8 6.9 7.4 7.6 7.6 7.5 7.5 7.5 7.8 7.7 7.7 8.2 8.4 8.3 8.7 8.7 8.7 8.7 8.8 8.4 8.5 8.7 8.6 8.5 8.2 7.8 7.5 7.6 7.6 7.6 7.6 7.2 7.1 7.0 7.1 7.2 6.8 6.2 6.3 6.1 6.1 5.9
5.4 5.9 5.9 6.2 6.8 7.1 7.4 7.0 7.2 7.1 7.2 7.5 7.5 7.5 7.5 7.5 7.7 8.2 8.1 8.4 8.7 8.9 8.7 8.1 8.2 8.4 8.4 8.7 8.8 8.6 8.2 7.9 7.4 7.2 7.0 7.4 7.6 7.3 7.3 6.9 6.9 6.9 6.5 6.2 6.2 6.2 6.2 6.1 6.2
5.0 5.1 5.5 5.8 6.6 7.0 7.3 6.8 7.3 6.9 7.0 7.3 7.4 7.5 7.3 7.4 8.0 7.9 8.0 8.4 8.7 8.5 8.4 8.3 8.1 8.1 8.2 8.7 8.7 8.4 8.3 7.9 7.9 7.9 7.3 7.4 7.4 7.3 6.8 6.8 6.6 6.4 6.4 6.1 6.1 6.2 6.2 6.2 6.3
4.7 5.3 5.5 5.9 6.2 6.1 7.4 6.3 6.7 6.7 6.9 7.2 7.2 7.3 7.4 7.9 7.8 7.8 8.2 8.3 8.6 8.7 8.7 8.2 8.4 7.9 8.2 8.7 8.5 8.4 8.3 8.1 8.1 7.6 7.3 7.6 7.4 6.8 6.7 6.7 6.4 6.2 6.1 6.2 6.3 6.3 6.2 6.2 6.2
4.6 5.4 5.7 6.0 6.3 6.5 6.6 6.8 5.5 6.5 6.5 7.0 7.2 7.6 7.9 7.7 7.7 7.9 8.1 8.3 8.6 8.5 8.6 8.3 8.3 8.2 8.4 8.5 8.4 8.5 8.5 8.4 8.0 7.3 7.5 7.2 6.9 6.8 6.8 6.5 6.2 6.2 6.1 6.2 6.2 6.2 6.2 6.3 6.3
5.0 5.5 5.9 6.4 6.6 5.9 5.8 6.4 5.4 6.3 6.9 7.0 7.8 7.8 7.7 7.7 7.6 7.9 8.2 8.3 8.7 8.6 8.5 8.3 8.5 8.3 8.5 8.5 8.4 8.4 8.4 8.0 7.4 7.5 7.4 7.1 6.7 6.6 6.4 6.1 6.1 6.2 6.0 6.1 6.2 6.3 6.3 6.2 6.1
5.1 5.4 5.6 5.6 5.6 4.6 6.5 6.3 5.3 6.8 7.3 7.6 7.6 7.4 7.4 7.3 7.8 8.2 8.2 8.4 8.4 8.5 8.3 8.2 8.4 8.4 8.4 8.3 8.2 8.1 7.7 7.3 7.4 7.2 6.8 6.6 6.4 6.2 6.1 6.1 6.0 5.9 6.0 6.2 6.1 6.1 6.1 6.1 6.1
5.8 6.2 5.6 4.1 4.4 5.1 6.4 5.6 5.6 6.8 7.9 7.8 7.6 7.6 7.2 7.5 8.0 7.9 8.3 8.4 8.2 8.1 8.1 8.2 8.3 8.4 8.2 8.1 7.9 7.5 7.2 7.3 7.1 6.8 6.6 6.5 6.2 6.0 6.0 5.9 5.9 5.8 5.9 6.0 6.2 6.0 5.9 5.9 6.0
6.1 5.7 5.5 5.9 6.4 5.5 6.1 6.1 6.2 7.2 7.9 8.5 8.0 7.6 7.6 7.7 7.8 8.2 8.3 8.3 8.3 8.3 8.2 8.1 8.1 8.1 7.8 7.7 7.3 7.3 7.1 6.9 6.6 6.5 6.3 6.1 5.9 6.0 6.0 5.9 5.9 5.7 5.9 6.0 6.2 5.8 5.7 5.8 6.0
6.1 6.3 7.3 6.4 5.8 4.7 5.3 6.0 6.3 8.0 8.4 8.5 8.4 8.1 8.0 8.0 7.8 8.3 8.2 8.2 8.2 8.1 8.0 8.0 7.9 7.6 7.4 7.2 7.0 6.9 6.7 6.6 6.5 6.3 6.1 6.1 5.9 6.1 5.9 5.9 5.7 5.8 5.9 6.1 6.0 5.7 5.4 5.3 5.6
6.6 7.4 7.0 7.2 6.8 5.4 4.2 5.6 8.1 8.4 8.5 8.8 8.6 8.4 8.3 7.9 8.2 8.2 8.1 8.1 8.1 8.1 8.0 7.8 7.5 7.3 7.2 6.9 6.9 6.8 6.7 6.5 6.5 6.3 6.3 6.1 6.0 5.9 6.0 5.8 5.8 5.8 6.1 6.1 5.9 5.3 5.5 5.4 5.6
7.3 7.0 6.8 6.1 5.8 6.1 5.7 5.3 8.3 8.7 8.4 8.6 8.6 8.7 8.2 8.4 8.4 8.3 8.4 8.5 8.3 8.1 7.7 7.5 7.2 7.1 6.9 6.8 6.9 6.8 6.8 6.7 6.4 6.1 6.2 6.0 5.9 6.0 6.0 5.9 5.7 5.9 6.2 6.2 6.0 5.5 5.5 5.5 5.6
Wind_Speed
6 3 1 2 2 3 3 6 5 6 8 3 6 6 6 4 5 4 4 12 13 17 21 22 22 22 22 21 22 21 19 18 19 18 18 17 15 13 12 10 9 7 6 4 3 3 2 2 3
4 3 2 2 3 1 4 6 7 2 3 9 11 7 7 3 1 6 5 4 13 16 19 21 25 25 24 23 23 23 22 20 19 19 18 17 16 14 13 11 9 8 7 6 4 4 4 4 4
1 1 3 3 3 5 4 5 5 5 4 5 4 3 5 4 3 5 5 12 12 13 19 22 27 26 26 25 25 25 23 21 20 20 19 18 17 16 15 13 12 10 8 7 7 6 6 7 7
2 3 3 1 8 7 5 13 2 4 5 6 2 2 4 4 6 9 13 16 14 14 18 24 28 27 27 27 26 27 26 24 22 21 20 20 19 18 17 14 13 11 9 10 10 10 10 10 9
2 2 1 3 6 6 11 9 5 6 3 3 3 5 2 1 10 16 17 17 16 14 15 22 27 27 27 27 26 26 27 26 25 23 22 21 20 19 18 17 14 12 11 11 11 12 11 10 10
2 1 1 5 7 7 5 6 11 5 2 9 2 3 4 4 12 14 16 17 16 18 15 20 28 29 28 28 28 27 26 27 26 25 23 22 20 20 19 17 15 14 13 12 12 12 11 9 8
5 3 4 4 5 6 0 7 5 4 4 4 4 6 2 3 9 17 17 13 14 14 15 14 22 25 27 28 29 29 28 29 28 26 25 23 21 19 18 17 16 15 14 15 15 14 13 11 11
4 4 3 5 5 7 4 10 5 8 8 1 6 6 4 6 8 3 6 5 9 10 12 14 15 20 21 22 28 29 29 29 29 28 25 23 21 19 18 16 16 15 15 16 16 15 13 12 12
7 0 5 6 6 7 9 7 26 2 9 2 3 6 9 9 9 6 5 9 8 8 12 12 14 15 17 19 22 25 26 26 26 26 25 21 15 16 16 15 15 17 18 17 15 14 13 11 12
5 7 9 9 5 5 5 6 15 19 10 7 7 3 7 1 7 10 7 8 11 14 11 12 13 14 13 12 15 18 17 17 18 18 19 16 14 15 14 15 16 18 19 17 15 14 13 12 8
6 14 13 14 11 10 11 12 6 17 16 8 4 8 7 7 9 4 6 6 7 13 12 16 16 15 15 12 8 8 11 11 13 15 14 13 12 11 11 9 8 12 16 11 12 10 10 8 7
14 15 16 16 17 14 16 14 16 15 18 12 10 8 6 7 8 9 9 10 8 8 13 17 16 15 15 10 10 10 9 6 8 12 14 9 5 5 4 2 5 6 8 6 6 5 7 8 9
20 20 15 13 16 20 19 21 20 23 18 16 11 8 8 8 10 8 11 10 10 8 9 16 16 16 15 15 10 10 11 9 9 9 14 12 6 6 4 4 4 5 7 6 4 4 4 5 6
4 6 14 17 19 19 19 22 20 22 19 21 14 12 11 10 11 8 9 10 10 11 8 13 16 17 15 16 15 12 10 10 9 8 11 16 9 7 5 5 5 4 8 8 5 5 5 5 4
11 10 14 20 12 17 16 26 28 21 21 19 15 12 11 11 10 11 11 10 12 9 9 14 17 17 17 19 14 11 10 9 9 9 14 17 14 9 8 5 4 4 7 7 5 3 3 3 3
3 4 17 21 18 10 8 35 20 11 15 20 17 18 18 14 15 16 12 10 10 9 10 9 10 16 17 16 12 11 10 10 9 8 10 15 14 13 6 5 4 5 5 4 4 4 4 4 4
7 17 20 26 6 4 11 39 15 14 17 13 11 14 15 19 18 11 14 11 11 11 10 8 8 13 15 13 9 10 10 9 7 7 7 9 11 12 7 5 5 6 4 4 3 3 4 4 4
9 19 19 16 6 13 18 36 21 18 19 22 22 23 20 20 18 17 16 14 10 8 9 5 10 10 10 6 6 4 6 5 6 7 6 9 8 9 6 5 5 5 4 4 3 5 4 4 4
10 11 10 5 10 11 22 24 21 17 16 12 13 17 19 19 17 11 8 8 9 9 9 10 10 8 10 8 7 7 6 6 5 5 8 7 4 7 7 4 4 5 5 5 5 3 5 4 3
14 16 19 6 9 15 18 28 24 23 22 19 21 20 17 15 9 10 9 9 9 9 9 8 9 13 11 9 8 4 6 3 5 5 8 9 7 7 6 6 5 6 4 4 3 4 1 2 4
16 19 12 8 12 22 9 19 8 15 11 10 10 15 10 12 11 10 10 12 6 9 9 9 9 9 8 11 8 5 5 4 3 2 3 5 7 7 7 7 5 5 3 4 3 4 5 3 2
19 13 13 16 13 13 8 19 22 14 22 16 12 11 12 14 9 10 12 7 9 7 6 8 10 11 8 11 10 13 5 5 3 4 3 5 6 7 6 6 5 5 3 4 4 4 3 3 3
19 10 16 13 8 15 16 6 25 10 16 17 15 14 11 11 11 11 10 8 6 10 9 10 11 9 7 9 11 8 6 3 3 3 8 6 4 5 5 6 5 4 4 4 5 4 4 3 3
6 9 15 12 2 8 14 11 9 14 15 8 9 9 11 11 10 8 4 9 10 9 11 11 12 8 8 9 9 9 9 6 5 5 5 4 3 3 4 5 5 4 4 5 4 5 5 5 4
4 1 3 2 5 16 12 10 21 9 8 15 16 15 14 8 4 7 11 12 11 12 12 10 12 9 9 10 9 8 8 8 9 7 5 6 3 2 3 4 4 3 5 5 4 3 4 4 3
7 9 5 7 4 4 12 9 7 16 20 26 21 18 4 5 6 7 7 9 12 13 10 10 11 10 10 9 8 7 9 6 5 5 4 4 4 3 4 4 4 5 5 5 5 3 4 4 4
4 10 5 6 15 2 5 8 9 19 24 21 19 8 8 8 9 11 10 10 11 10 11 11 10 10 10 9 8 7 7 8 7 7 6 4 3 3 5 5 5 4 6 5 5 4 4 4 3
7 5 5 3 7 6 5 6 8 7 11 12 12 10 8 8 11 11 11 11 9 9 9 9 9 11 9 8 8 8 8 7 7 6 6 5 4 4 5 4 3 4 4 4 5 4 3 5 3
3 1 3 3 4 8 3 6 11 11 13 18 8 14 16 14 13 12 11 10 10 10 9 8 8 9 8 8 7 8 7 8 6 6 5 6 4 4 5 4 4 4 3 3 3 3 3 4 2
4 6 5 3 6 5 2 12 17 8 12 12 14 16 13 13 12 13 12 12 11 10 9 8 7 8 8 7 7 7 7 7 7 6 6 5 5 4 5 4 4 4 3 3 3 4 3 5 4
Wind_Direction
165 164 79 68 71 78 257 261 282 293 342 338 290 78 140 116 157 204 314 150 130 149 156 163 163 160 156 156 152 151 154 151 150 152 148 146 147 148 147 145 147 153 154 155 155 162 203 235 236
165 166 52 54 111 167 263 234 250 243 268 30 350 101 16 49 54 125 100 137 147 147 154 164 167 164 163 163 159 158 158 160 160 158 157 157 158 160 160 160 167 174 177 182 197 210 227 246 251
246 279 95 142 192 200 209 238 203 349 346 48 22 343 132 140 80 129 113 123 135 155 163 168 169 169 168 168 166 163 161 164 167 164 167 167 167 169 170 172 179 185 191 201 216 222 236 247 248
121 8 1 143 238 263 261 269 321 276 282 83 356 323 81 248 140 150 143 145 153 169 172 172 173 174 171 173 174 168 165 170 172 173 175 176 175 178 178 183 189 192 199 212 223 231 239 245 252
54 60 146 246 253 251 258 300 280 246 246 190 161 177 131 327 147 143 158 162 165 173 176 174 177 179 177 178 177 176 172 173 177 179 181 184 184 186 185 190 195 198 207 219 228 237 250 246 256
38 92 152 225 246 270 251 272 250 217 220 279 234 90 183 186 140 175 169 178 174 169 178 178 184 184 182 180 180 180 181 178 180 183 186 189 192 191 194 195 197 202 211 223 235 238 237 235 245
137 108 235 249 261 279 12 302 328 237 200 257 146 136 281 275 215 180 187 179 172 173 170 181 187 189 188 186 185 184 186 185 183 185 189 191 193 196 199 199 201 206 215 225 232 236 237 237 242
159 125 256 235 230 262 43 335 303 33 302 164 130 157 196 257 282 274 189 181 169 165 177 183 184 190 192 191 193 191 189 192 187 186 190 192 192 195 203 206 208 212 221 222 224 233 237 242 246
150 170 232 237 213 248 83 59 287 342 337 193 162 145 185 199 212 213 236 154 196 183 186 186 185 190 194 194 198 197 198 197 194 190 189 191 188 193 204 212 214 217 221 222 226 234 240 241 248
174 189 229 230 266 297 345 132 271 303 308 307 307 196 325 346 164 186 201 226 166 198 193 187 187 192 192 196 195 197 199 204 200 199 191 185 183 191 200 217 224 223 224 225 226 235 244 250 234
218 228 212 251 271 286 283 280 223 284 282 257 249 295 297 291 307 288 231 215 220 185 189 190 192 188 186 192 189 194 199 197 205 199 189 179 180 194 204 217 231 219 227 226 222 231 244 231 228
258 246 238 249 262 271 263 276 275 255 266 252 247 231 249 231 252 258 237 237 238 225 182 192 191 188 189 186 191 192 197 194 201 193 182 176 172 186 206 196 205 201 206 208 210 222 240 238 232
253 255 252 253 251 254 265 265 263 274 275 265 259 258 255 252 251 234 229 247 247 243 184 193 184 189 190 189 189 192 196 198 197 186 186 181 179 182 192 203 188 206 199 210 208 220 227 231 234
296 276 262 252 253 258 260 266 267 270 275 282 281 281 280 258 246 254 252 241 242 244 223 191 190 190 184 192 191 194 190 195 188 187 189 185 177 182 182 191 190 199 195 209 202 215 220 232 208
264 285 282 260 251 253 261 261 252 258 269 271 273 273 270 260 262 242 243 235 229 235 229 179 188 184 185 194 191 188 186 181 187 187 187 185 180 182 187 182 184 185 193 196 198 185 186 218 223
263 248 247 248 244 247 267 262 257 259 252 256 261 271 266 260 257 267 248 233 235 221 207 199 180 179 189 192 188 185 179 176 181 179 180 183 184 178 155 161 177 183 186 184 184 191 216 223 223
208 237 234 250 222 228 212 263 255 236 252 263 263 265 268 276 275 252 247 231 231 203 210 192 180 184 189 191 178 179 168 169 169 166 171 178 175 168 163 167 183 176 180 188 195 215 215 221 228
211 219 233 254 210 216 235 261 257 264 267 268 270 268 270 267 264 251 246 231 221 219 216 205 190 186 178 153 134 124 136 139 147 161 158 161 167 169 153 176 180 162 162 186 231 223 224 216 216
269 262 253 244 199 218 241 262 258 250 252 258 265 269 261 261 252 258 253 244 214 194 183 194 169 169 155 161 152 153 155 148 132 140 140 146 164 161 171 182 171 171 176 198 216 228 222 245 204
245 265 264 301 276 216 243 251 263 265 262 256 259 260 255 248 257 255 239 221 211 205 206 173 179 169 169 168 170 120 141 113 144 147 162 174 178 166 171 163 177 182 188 226 219 196 205 247 187
242 234 261 265 296 292 300 281 247 261 257 255 256 253 250 242 248 255 243 224 178 193 189 169 162 152 148 127 113 94 85 80 91 78 127 162 160 156 157 167 166 170 180 212 211 201 186 197 206
249 251 241 248 261 266 217 280 259 262 267 262 245 248 251 266 249 246 240 214 188 172 136 126 127 126 135 135 122 140 131 143 158 149 128 134 149 156 158 150 155 178 186 197 210 202 188 153 190
250 255 231 252 238 248 248 273 267 208 250 252 253 245 251 253 255 256 245 195 176 145 134 125 121 121 135 115 127 133 125 130 136 110 122 134 154 148 150 152 166 186 189 201 203 200 194 188 174
290 231 243 260 224 254 228 220 275 237 240 245 241 270 262 261 264 250 174 134 132 124 117 123 125 125 117 112 123 129 139 134 113 111 122 132 126 137 151 152 180 190 189 203 212 212 205 201 198
241 142 233 230 197 234 183 218 240 270 249 242 249 250 258 262 218 147 132 132 127 124 122 120 126 120 115 111 114 125 131 127 132 136 136 143 141 186 187 166 189 195 206 212 210 212 204 203 202
187 171 183 193 200 278 240 241 240 236 257 256 252 253 163 146 120 116 115 119 123 123 115 120 120 121 115 113 115 108 113 115 121 138 142 153 179 171 162 176 183 207 210 212 200 207 211 196 217
318 216 194 276 277 301 233 268 275 258 266 262 252 168 176 153 135 128 116 118 120 116 123 126 119 117 117 119 110 101 107 114 126 132 141 162 159 154 169 175 194 217 219 216 208 210 217 207 205
191 258 163 215 217 240 255 252 236 252 284 277 251 174 153 134 130 128 126 126 115 121 122 111 116 122 122 119 117 122 123 119 126 130 134 144 152 155 176 191 209 225 234 202 194 207 211 218 215
351 227 198 173 195 219 298 255 244 250 267 279 198 165 153 150 146 136 132 126 125 125 120 122 122 120 123 123 123 126 135 128 132 132 142 162 156 177 190 188 216 213 199 184 175 213 226 191 180
244 253 172 206 250 249 210 265 260 271 282 269 163 155 144 147 137 132 132 132 136 131 131 132 127 129 138 141 138 140 128 126 133 146 158 160 165 186 200 208 213 210 170 189 203 228 158 131 123